Date String (YYYY-MM-DD hh:mm:ss) UTC,Instrument flags,absolute air pressure of the measurement (hPa),sample flow rate (lpm),inlet stack bypass flow (lpm),air temperature of the measurement (°C),ambient temperature measured by the external sensor (°C),aerosol sample conditioner tube jacket temperature (°C),OPC LED temperature (°C),internal box temperature (°C),relative humidity of the measurement (%),span deviation,mass concentration of particles derived from Lorenz-Mie calculation of OPC scattering (μg/m³),mass concentration of particles derived from Lorenz-Mie calculation of OPC scattering (μg/m³),mass concentration of particles derived from Lorenz-Mie calculation of OPC scattering (μg/m³)
DateTimeUTC,F1_M11,P_M11,Q1_M11,Q2_M11,T1_M11,T2_M11,T3_M11,T4_M11,T5_M11,U1_M11,ZSPAN_M11,X0_M11,X2_M11,X1_M11
2024-03-13 12:00:00,SystemResetWarning,0821.4,5.01,000.00,020.9,020.2,000.0,029.5,022.7,23.2,0000.0,0012.61,0004.24,0003.26
2024-03-13 12:01:00,SystemResetWarning,0821.4,5.00,000.00,020.9,020.2,000.0,029.5,022.7,23.2,0000.0,0011.94,0004.27,0003.26
2024-03-13 12:02:00,SystemResetWarning,0821.4,5.00,000.00,020.9,020.2,000.0,029.5,022.7,23.2,0000.0,0012.05,0004.30,0003.25
2024-03-13 12:03:00,SystemResetWarning,0821.4,4.99,000.00,020.9,020.2,000.0,029.5,022.7,23.1,0000.0,0011.86,0004.33,0003.25
2024-03-13 12:04:00,SystemResetWarning,0821.4,5.00,000.00,020.9,020.2,000.0,029.4,022.7,23.1,0000.0,0011.53,0004.31,0003.23
2024-03-13 12:05:00,SystemResetWarning,0821.4,5.00,000.00,020.9,020.2,000.0,029.4,022.7,23.1,0000.0,0011.54,0004.27,0003.21
2024-03-13 12:06:00,SystemResetWarning,0821.4,4.99,000.00,020.9,020.2,000.0,029.4,022.7,23.1,0000.0,0011.12,0004.26,0003.19
2024-03-13 12:07:00,SystemResetWarning,0821.4,5.00,000.00,020.9,020.2,000.0,029.4,022.7,23.1,0000.0,0010.48,0004.24,0003.18
2024-03-13 12:08:00,SystemResetWarning,0821.4,5.01,000.00,020.9,020.2,000.0,029.4,022.7,23.1,0000.0,0009.89,0004.17,0003.16
2024-03-13 12:09:00,SystemResetWarning,0821.3,5.01,000.00,020.9,020.2,000.0,029.4,022.7,23.1,0000.0,0009.20,0004.14,0003.13
2024-03-13 12:10:00,SystemResetWarning,0821.3,5.01,000.00,020.9,020.1,000.0,029.4,022.7,23.1,0000.0,0008.74,0004.12,0003.11
2024-03-13 12:11:00,SystemResetWarning,0821.3,4.99,000.00,020.9,020.1,000.0,029.4,022.7,23.1,0000.0,0008.94,0004.11,0003.08
2024-03-13 12:12:00,SystemResetWarning,0821.3,5.00,000.00,020.9,020.1,000.0,029.4,022.7,23.1,0000.0,0009.20,0004.06,0003.05
2024-03-13 12:13:00,SystemResetWarning,0821.3,4.99,000.00,020.8,020.1,000.0,029.4,022.7,23.1,0000.0,0009.58,0004.06,0003.06
2024-03-13 12:14:00,SystemResetWarning,0821.3,5.00,000.00,020.8,020.1,000.0,029.4,022.6,23.1,0000.0,0009.61,0004.02,0003.02
2024-03-13 12:15:00,SystemResetWarning,0821.3,5.01,000.00,020.8,020.1,000.0,029.4,022.6,23.1,0000.0,0009.71,0004.05,0003.01
2024-03-13 12:16:00,SystemResetWarning,0821.3,5.01,000.00,020.8,020.1,000.0,029.4,022.6,23.1,0000.0,0009.79,0004.05,0003.02
2024-03-13 12:17:00,SystemResetWarning,0821.3,5.01,000.00,020.8,020.1,000.0,029.4,022.6,23.2,0000.0,0010.17,0004.04,0003.02
2024-03-13 12:18:00,SystemResetWarning,0821.3,5.00,000.00,020.8,020.1,000.0,029.4,022.6,23.2,0000.0,0010.22,0004.02,0003.00
2024-03-13 12:19:00,SystemResetWarning,0821.3,5.00,000.00,020.8,020.1,000.0,029.4,022.6,23.1,0000.0,0010.40,0004.04,0002.98
2024-03-13 12:20:00,SystemResetWarning,0821.3,4.99,000.00,020.8,020.1,000.0,029.4,022.6,23.0,0000.0,0010.53,0004.03,0002.99
2024-03-13 12:21:00,SystemResetWarning,0821.3,5.00,000.00,020.8,020.1,000.0,029.3,022.6,23.0,0000.0,0010.27,0004.00,0002.99
2024-03-13 12:22:00,SystemResetWarning,0821.3,5.00,000.00,020.8,020.1,000.0,029.3,022.6,23.0,0000.0,0010.04,0003.99,0002.98
2024-03-13 12:23:00,SystemResetWarning,0821.3,5.00,000.00,020.8,020.1,000.0,029.3,022.6,23.0,0000.0,0009.78,0004.02,0002.97
2024-03-13 12:24:00,SystemResetWarning,0821.3,5.00,000.00,020.8,020.1,000.0,029.3,022.6,23.0,0000.0,0009.45,0004.04,0002.96
2024-03-13 12:25:00,SystemResetWarning,0821.3,5.01,000.00,020.8,020.1,000.0,029.3,022.6,23.0,0000.0,0009.91,0004.02,0002.95
2024-03-13 12:26:00,SystemResetWarning,0821.3,5.01,000.00,020.7,020.0,000.0,029.3,022.6,23.0,0000.0,0010.05,0003.99,0002.95
2024-03-13 12:27:00,SystemResetWarning,0821.3,5.00,000.00,020.7,020.0,000.0,029.3,022.5,22.9,0000.0,0010.10,0004.01,0002.92
2024-03-13 12:28:00,SystemResetWarning,0821.3,5.00,000.00,020.7,020.0,000.0,029.3,022.5,22.9,0000.0,0009.72,0003.99,0002.89
2024-03-13 12:29:00,SystemResetWarning,0821.3,5.01,000.00,020.7,020.0,000.0,029.3,022.5,22.9,0000.0,0009.50,0004.03,0002.92
2024-03-13 12:30:00,SystemResetWarning,0821.3,5.00,000.00,020.7,020.0,000.0,029.3,022.5,23.0,0000.0,0009.25,0004.03,0002.92
2024-03-13 12:31:00,SystemResetWarning,0821.3,5.00,000.00,020.7,020.0,000.0,029.3,022.5,23.0,0000.0,0009.21,0004.02,0002.91
2024-03-13 12:32:00,SystemResetWarning,0821.3,5.00,000.00,020.7,020.0,000.0,029.3,022.5,23.0,0000.0,0009.23,0004.02,0002.90
2024-03-13 12:33:00,SystemResetWarning,0821.3,5.00,000.00,020.7,020.0,000.0,029.3,022.5,23.0,0000.0,0009.11,0003.99,0002.91
2024-03-13 12:34:00,SystemResetWarning,0821.3,5.00,000.00,020.7,020.0,000.0,029.3,022.5,23.1,0000.0,0008.97,0003.97,0002.93
2024-03-13 12:35:00,SystemResetWarning,0821.3,5.00,000.00,020.7,019.9,000.0,029.2,022.5,23.1,0000.0,0008.88,0003.93,0002.94
2024-03-13 12:36:00,SystemResetWarning,0821.3,5.00,000.00,020.7,019.9,000.0,029.2,022.5,23.1,0000.0,0008.88,0003.98,0002.96
2024-03-13 12:37:00,SystemResetWarning,0821.3,5.00,000.00,020.6,019.9,000.0,029.2,022.5,23.1,0000.0,0008.63,0003.99,0002.96
2024-03-13 12:38:00,SystemResetWarning,0821.3,5.01,000.00,020.6,019.9,000.0,029.2,022.5,23.1,0000.0,0008.47,0003.96,0002.96
2024-03-13 12:39:00,SystemResetWarning,0821.3,5.01,000.00,020.6,019.9,000.0,029.2,022.5,23.1,0000.0,0008.37,0003.95,0002.97
2024-03-13 12:40:00,SystemResetWarning,0821.3,5.00,000.00,020.6,019.9,000.0,029.2,022.4,23.1,0000.0,0008.39,0003.92,0002.95
2024-03-13 12:41:00,SystemResetWarning,0821.2,4.98,000.00,020.6,019.9,000.0,029.2,022.4,23.1,0000.0,0008.32,0003.89,0002.94
2024-03-13 12:42:00,SystemResetWarning,0821.2,5.01,000.00,020.6,019.9,000.0,029.2,022.4,23.1,0000.0,0008.35,0003.94,0002.96
2024-03-13 12:43:00,SystemResetWarning,0821.2,5.01,000.00,020.6,019.9,000.0,029.2,022.4,23.1,0000.0,0008.36,0003.93,0002.98
2024-03-13 12:44:00,SystemResetWarning,0821.2,5.00,000.00,020.6,019.9,000.0,029.2,022.4,23.0,0000.0,0008.49,0003.93,0002.99
2024-03-13 12:45:00,SystemResetWarning,0821.2,5.00,000.00,020.6,019.9,000.0,029.2,022.4,23.0,0000.0,0008.49,0003.93,0002.99
2024-03-13 12:46:00,SystemResetWarning,0821.2,5.00,000.00,020.6,019.9,000.0,029.2,022.4,23.0,0000.0,0008.41,0003.91,0002.99
2024-03-13 12:47:00,SystemResetWarning,0821.2,4.99,000.00,020.6,019.9,000.0,029.2,022.4,22.9,0000.0,0008.28,0003.91,0003.01
2024-03-13 12:48:00,SystemResetWarning,0821.3,4.99,000.00,020.6,019.9,000.0,029.1,022.4,22.9,0000.0,0008.57,0003.89,0003.02
2024-03-13 12:49:00,SystemResetWarning,0821.2,5.00,000.00,020.6,019.9,000.0,029.1,022.4,22.9,0000.0,0008.72,0003.88,0003.03
2024-03-13 12:50:00,SystemResetWarning,0821.3,5.01,000.00,020.6,019.8,000.0,029.1,022.4,22.9,0000.0,0009.23,0003.93,0003.06
2024-03-13 12:51:00,SystemResetWarning,0821.3,5.00,000.00,020.6,019.9,000.0,029.1,022.4,22.9,0000.0,0009.60,0003.96,0003.09
2024-03-13 12:52:00,SystemResetWarning,0821.2,5.00,000.00,020.6,019.8,000.0,029.1,022.4,23.0,0000.0,0009.77,0003.97,0003.09
2024-03-13 12:53:00,SystemResetWarning,0821.2,5.01,000.00,020.5,019.8,000.0,029.1,022.4,23.1,0000.0,0009.76,0003.93,0003.10
2024-03-13 12:54:00,SystemResetWarning,0821.2,4.99,000.00,020.5,019.8,000.0,029.1,022.3,23.1,0000.0,0009.75,0003.95,0003.11
2024-03-13 12:55:00,SystemResetWarning,0821.2,4.99,000.00,020.5,019.8,000.0,029.1,022.3,23.1,0000.0,0009.90,0003.99,0003.12
2024-03-13 12:56:00,SystemResetWarning,0821.2,5.01,000.00,020.5,019.8,000.0,029.1,022.3,23.1,0000.0,0010.42,0004.00,0003.12
2024-03-13 12:57:00,SystemResetWarning,0821.2,5.00,000.00,020.5,019.8,000.0,029.1,022.3,23.1,0000.0,0010.51,0004.02,0003.13
2024-03-13 12:58:00,SystemResetWarning,0821.2,5.01,000.00,020.5,019.8,000.0,029.1,022.3,23.1,0000.0,0010.31,0004.00,0003.13
2024-03-13 12:59:00,SystemResetWarning,0821.2,5.00,000.00,020.5,019.8,000.0,029.1,022.3,23.2,0000.0,0010.32,0004.03,0003.14
